Theta_e
311 310 311 311 309 310 309 310 311 310 311 311 310 309 310 312 311 311 313 314 315 316 318 316 315 313 312 312 311 311 311 311 311 312 312 312 322 325 326 325 324 326 325 329
309 310 310 310 309 311 311 312 310 310 310 310 310 310 309 310 310 313 314 315 316 316 317 317 316 314 313 312 312 310 310 310 311 312 312 316 318 324 318 323 319 323 327 324
311 312 310 311 310 311 310 310 310 312 310 308 308 309 308 309 309 312 314 315 316 316 317 317 316 315 313 313 312 310 310 310 311 312 312 315 319 322 322 323 323 321 322 323
310 310 311 311 311 311 311 309 310 311 312 312 310 314 312 311 310 308 314 316 317 317 316 316 315 314 314 313 312 310 309 309 310 311 312 315 318 320 320 321 321 322 321 320
312 311 311 312 311 310 312 310 310 311 310 310 311 311 313 310 311 310 312 314 316 316 315 315 315 314 313 311 311 309 308 309 310 312 311 314 319 320 320 320 322 321 320 320
310 310 310 311 310 310 308 310 309 307 308 313 310 312 313 310 311 311 311 316 315 314 315 315 314 313 312 310 309 308 308 309 311 312 314 318 316 318 320 321 320 319 319 319
311 310 309 310 311 310 311 312 314 313 312 315 309 311 314 312 309 309 310 315 313 315 316 316 316 315 313 311 309 307 307 309 312 313 315 316 318 319 320 320 320 318 318 318
313 314 310 308 312 312 310 311 313 312 313 313 310 314 314 309 310 311 312 312 311 313 315 315 314 312 311 310 308 307 307 309 312 314 315 316 316 318 319 320 319 318 318 317
312 313 309 308 309 312 310 312 311 312 297 307 312 311 310 308 308 310 311 309 312 315 314 313 312 311 309 308 307 307 307 309 311 313 315 315 316 317 318 318 317 317 316 315
312 315 308 309 309 309 310 308 313 310 311 310 313 312 314 314 312 309 310 311 314 314 313 313 312 311 309 308 307 307 307 309 311 314 314 315 316 317 317 316 316 316 314 310
310 312 311 309 309 310 310 311 310 311 309 311 310 316 308 311 310 311 311 311 313 314 314 313 312 311 310 308 307 306 307 308 311 314 314 315 315 316 316 315 314 314 310 305
311 312 309 310 308 307 309 311 310 314 312 310 311 318 309 311 310 310 310 311 311 312 313 313 313 313 311 310 308 307 307 308 311 313 314 314 313 315 314 314 312 310 305 300
312 315 315 315 314 309 310 309 312 311 310 314 313 318 305 306 308 310 310 310 310 312 314 313 313 313 313 312 309 307 307 307 309 313 313 312 312 313 314 313 311 307 301 296
313 311 314 320 317 311 311 309 309 313 316 315 315 317 313 310 309 309 311 310 313 312 312 313 316 314 313 311 311 307 306 307 309 311 312 312 311 311 312 311 310 304 299 293
313 315 310 311 311 311 310 311 311 312 314 317 317 315 315 314 309 311 314 313 313 312 313 315 315 314 314 313 310 308 306 305 306 309 311 311 310 310 310 310 307 302 295 292
313 313 313 316 312 310 312 311 310 312 313 314 315 315 315 313 314 313 314 315 315 315 315 314 314 313 314 314 311 309 308 306 305 306 308 309 308 308 309 309 304 299 292 290
313 312 314 318 315 315 315 315 314 310 311 312 314 314 313 312 309 311 314 314 313 313 314 313 313 314 313 313 312 311 308 306 304 303 305 308 307 307 307 306 301 296 292 291
308 309 312 318 314 319 315 310 314 315 313 310 309 312 312 312 312 313 312 311 312 313 313 313 313 312 312 312 312 309 306 305 303 302 302 305 307 307 306 304 299 294 291 290
311 310 313 315 317 316 315 307 309 312 314 312 312 311 311 312 311 311 312 313 312 312 311 310 310 310 311 311 309 307 304 303 302 301 300 301 303 305 303 301 297 293 291 290
309 310 313 314 316 317 312 303 304 309 317 305 310 311 311 310 308 312 311 311 310 309 309 310 310 310 309 309 308 305 303 302 300 299 298 299 300 300 300 298 295 294 293 290
308 308 312 314 315 313 305 301 305 314 312 301 308 310 306 305 308 308 309 309 308 308 308 308 308 308 307 305 304 303 301 300 298 297 296 296 297 296 295 295 294 293 293 291
308 310 311 310 312 313 301 302 308 305 300 302 304 305 306 306 307 306 306 306 307 307 307 306 305 304 303 302 301 300 299 298 296 295 295 295 294 294 293 293 293 293 291 290
306 305 305 305 306 301 302 304 306 305 302 302 303 304 304 303 304 304 304 305 306 306 305 305 305 304 303 302 300 300 298 297 295 294 293 292 292 292 292 292 291 290 289 288
301 303 305 304 304 306 305 305 305 305 305 304 304 302 302 303 303 303 303 303 304 306 305 304 304 304 303 302 299 297 301 301 301 300 299 297 296 294 292 291 291 291 290 289
300 299 302 303 302 301 303 304 304 304 303 301 301 299 299 300 300 301 301 301 303 304 305 304 302 301 302 301 301 302 300 301 300 300 299 297 296 295 293 292 291 291 290 291
298 301 304 305 303 303 304 305 304 304 304 303 299 296 297 300 302 299 299 300 300 301 302 302 302 302 302 302 301 301 301 299 298 298 297 296 296 296 295 293 292 291 291 290
Wind_Speed
2 3 8 15 8 3 4 4 5 4 4 4 9 9 15 22 18 26 34 34 35 36 33 34 35 35 35 34 34 34 33 32 30 28 29 28 30 30 28 27 41 30 32 26
4 8 11 5 5 4 2 2 6 5 4 5 8 12 13 17 16 32 36 40 42 42 42 40 37 38 39 37 36 36 35 33 30 28 29 30 29 34 33 30 28 25 22 25
8 4 3 8 4 5 5 6 5 8 4 4 6 7 9 9 18 31 40 44 45 46 45 44 43 42 40 41 39 38 36 34 31 30 29 29 31 32 32 33 32 31 29 25
7 4 5 4 5 8 7 9 6 4 2 5 1 8 6 6 11 8 33 39 41 39 40 41 40 39 42 43 42 39 37 34 32 31 29 30 35 36 35 32 32 31 27 27
8 8 6 6 7 8 6 5 6 3 4 3 1 5 4 1 7 14 22 35 35 34 32 31 31 30 32 40 43 40 37 34 32 30 27 27 36 36 34 35 35 31 28 28
4 1 6 8 2 5 6 5 5 4 1 5 11 8 4 6 7 7 10 24 20 16 13 15 16 19 25 32 39 39 37 36 32 29 28 33 34 34 37 37 35 32 29 30
2 5 3 5 5 2 3 5 2 4 1 7 2 5 11 10 9 8 10 16 11 7 9 12 13 16 20 26 34 39 38 37 32 30 31 33 33 37 34 35 36 35 32 33
8 7 12 7 11 8 9 8 6 7 4 5 1 8 6 9 17 19 21 24 20 17 14 16 16 16 19 21 29 39 40 36 33 32 33 33 34 38 39 39 37 34 30 32
6 7 1 2 2 12 6 7 5 3 2 2 5 8 8 9 11 16 12 4 10 15 13 13 13 13 15 20 26 37 38 37 34 33 34 35 37 38 40 38 40 36 34 34
5 3 1 2 4 3 6 7 3 1 3 5 5 6 7 6 8 9 4 7 2 5 6 6 7 9 11 15 22 31 36 36 33 33 35 36 38 39 40 41 39 36 35 37
5 4 1 2 7 11 3 5 1 4 5 5 3 8 7 8 8 6 3 4 1 4 5 4 4 5 7 12 20 29 34 34 33 34 34 36 37 39 39 40 40 37 38 41
8 4 5 9 2 2 0 5 7 4 4 4 2 16 4 4 3 2 1 2 7 5 6 3 4 5 7 12 20 28 33 34 32 34 35 36 35 37 37 38 39 39 40 43
9 5 1 3 2 1 5 6 13 4 3 12 5 14 3 3 4 9 4 5 4 3 6 6 5 7 8 13 20 28 34 35 33 37 38 38 37 38 38 38 39 39 41 44
10 5 8 11 4 6 7 9 13 18 9 10 19 26 13 3 5 6 11 12 11 13 11 10 13 13 17 16 21 27 33 36 36 38 40 39 39 39 38 37 38 40 44 46
5 7 5 8 1 0 3 9 18 20 30 14 32 17 32 16 9 18 20 19 24 24 23 20 17 21 22 24 24 28 33 37 38 40 42 41 39 39 38 37 38 42 47 46
5 4 3 13 7 8 5 7 16 25 26 22 27 22 31 11 14 9 18 22 27 27 25 26 28 25 26 28 29 28 32 36 39 41 42 42 40 41 41 39 40 45 48 46
7 8 6 17 16 11 9 29 15 9 19 20 20 32 28 15 8 12 25 28 28 30 31 32 34 35 32 29 28 31 32 35 36 41 42 44 41 43 43 41 42 47 49 45
6 3 4 13 5 16 18 7 21 24 21 16 16 23 21 19 19 26 27 21 30 35 35 35 29 26 26 26 28 28 29 32 35 38 41 43 45 45 45 43 44 47 47 46
14 8 5 5 6 5 8 5 7 10 20 21 24 24 31 42 18 35 29 30 27 21 16 17 20 19 19 21 21 22 24 26 31 36 39 41 42 42 43 42 44 45 44 43
15 15 12 10 11 9 8 4 6 5 13 7 19 23 23 12 5 14 8 11 11 13 16 16 16 16 15 15 17 20 20 24 27 31 33 35 37 38 40 40 41 42 41 41
5 5 18 17 14 7 5 4 7 9 8 8 22 27 14 7 8 3 5 11 13 10 10 11 11 10 8 8 10 12 15 18 20 21 25 29 31 34 36 36 38 39 38 39
8 6 7 6 9 13 12 5 7 5 3 6 7 9 9 11 10 11 12 12 12 10 8 7 6 3 1 0 2 6 9 10 13 14 17 20 25 31 33 33 33 34 35 36
4 4 2 4 2 5 15 4 18 6 5 7 9 7 6 7 8 7 6 8 9 8 4 0 3 5 7 7 5 4 4 5 6 8 9 12 15 18 23 28 29 29 30 31
7 9 9 11 14 15 22 20 19 14 15 11 10 9 9 8 6 7 6 7 7 8 5 4 6 8 7 8 9 7 6 7 7 8 9 10 14 19 24 26 28 31 33 35
2 5 6 5 7 7 17 24 24 21 19 15 12 11 11 9 6 5 4 4 5 5 6 6 7 7 7 9 11 9 8 7 7 7 7 8 11 13 18 22 25 28 31 33
6 4 3 3 9 5 8 7 10 18 23 20 16 14 11 8 6 6 6 6 5 4 6 8 9 8 9 10 11 12 11 8 8 8 9 9 10 11 13 16 19 20 20 21
Wind_Direction
118 121 204 213 193 142 141 195 232 241 243 203 232 250 268 270 267 268 268 262 258 255 260 253 245 242 241 240 240 238 237 235 234 230 224 222 215 212 221 226 230 233 236 216
51 233 231 131 167 183 171 269 267 276 250 196 270 257 258 263 248 256 261 264 263 261 258 254 248 241 240 242 242 239 237 236 236 233 231 222 214 215 220 229 232 229 222 235
179 211 167 164 154 161 213 201 229 231 312 241 322 267 237 263 251 258 261 261 262 261 262 260 251 247 242 240 240 237 235 233 233 234 229 218 214 215 217 219 216 217 220 214
235 237 140 173 199 163 251 202 200 223 43 256 20 291 234 248 257 241 260 259 260 262 264 264 263 252 246 242 237 235 233 232 232 233 225 220 217 216 213 214 217 214 217 220
236 171 178 187 198 171 235 135 168 175 188 1 268 277 237 156 263 259 257 261 267 272 275 275 273 269 256 243 236 232 230 229 231 229 224 220 216 217 217 217 210 209 212 212
235 201 168 196 128 162 138 85 59 59 104 267 198 190 182 174 211 251 267 275 289 293 295 281 273 261 252 242 234 229 228 229 228 225 216 212 221 216 216 209 209 204 205 206
149 212 194 163 95 57 145 106 309 321 351 246 73 216 255 282 244 227 249 276 306 326 319 306 284 265 254 241 230 224 225 228 224 222 215 215 219 213 218 218 211 206 206 205
185 270 169 193 192 170 198 163 169 223 222 279 17 239 248 235 259 251 260 271 286 301 299 291 281 266 254 241 228 221 223 226 225 219 217 214 215 219 222 214 211 206 215 214
170 265 218 118 123 158 197 205 175 74 110 356 223 281 282 265 286 275 255 255 293 307 300 293 286 277 260 243 230 222 224 225 225 222 217 216 219 222 215 219 210 209 208 211
214 272 13 132 124 52 158 168 91 346 206 257 267 268 230 260 242 257 298 282 330 339 343 331 303 287 265 244 233 226 227 229 228 222 220 216 220 221 220 220 213 212 208 206
141 151 305 150 206 170 141 193 128 139 156 191 302 263 209 224 221 235 197 152 116 108 66 31 1 328 279 246 232 227 229 232 228 223 223 223 226 224 224 221 215 213 208 204
204 166 197 209 249 202 59 199 155 148 217 239 176 265 152 175 97 192 214 173 154 113 64 68 63 335 297 261 237 229 230 236 231 226 224 224 228 228 224 221 218 215 207 204
174 188 240 321 345 350 203 202 204 121 97 224 153 262 347 260 239 241 244 183 186 329 357 340 341 303 296 276 247 236 234 236 233 225 224 226 230 230 228 225 221 216 209 206
178 181 200 230 213 146 194 196 201 202 219 217 233 251 239 219 246 244 234 222 261 280 292 311 298 294 306 272 255 244 239 237 234 230 227 228 232 232 232 230 225 214 209 207
205 225 200 241 356 185 255 212 200 206 223 198 249 244 256 245 232 250 267 263 275 279 287 288 274 297 299 281 256 249 243 239 235 231 231 229 234 234 230 228 223 216 211 208
173 272 181 267 240 220 256 244 219 219 227 233 252 251 255 240 251 247 254 263 269 275 278 279 283 284 284 280 265 252 248 242 238 233 232 229 233 234 232 229 222 215 211 210
192 192 198 251 245 232 238 232 219 225 230 219 233 242 266 268 232 253 269 267 273 280 283 286 290 291 285 279 272 264 254 247 238 236 234 229 230 233 233 230 222 214 212 211
170 144 235 250 213 225 243 186 218 224 232 223 260 258 263 263 268 267 266 273 278 280 285 287 283 281 273 270 271 262 250 246 241 236 235 233 229 230 232 229 222 216 213 213
215 214 241 244 248 312 299 240 156 176 240 221 226 248 261 266 281 278 275 276 274 277 284 289 290 287 279 264 261 256 247 244 239 237 235 233 231 230 230 226 221 217 216 215
218 221 237 245 245 244 220 218 199 109 240 199 197 230 243 248 255 268 251 258 270 289 295 292 290 285 278 272 260 251 246 242 239 237 236 234 231 231 230 225 220 218 220 221
189 199 220 229 246 267 257 202 165 166 231 185 195 218 212 197 221 221 245 285 293 301 305 307 303 293 269 256 251 244 237 238 240 238 236 234 233 232 231 226 222 222 223 223
202 207 210 212 233 235 171 115 188 217 154 162 193 210 221 243 254 270 280 286 291 296 308 318 323 335 35 239 213 229 227 224 229 230 231 231 231 229 228 226 227 227 226 224
232 200 252 223 243 331 210 240 204 175 189 195 200 207 226 243 252 247 247 251 266 276 297 325 107 98 104 109 133 168 173 191 204 209 218 220 225 232 233 232 228 226 225 224
235 198 219 274 257 260 276 255 246 238 222 219 230 221 222 239 247 255 240 241 242 244 214 172 163 158 162 153 145 145 156 165 173 184 196 206 211 214 214 220 224 228 226 224
275 143 192 235 281 294 263 250 254 240 236 246 245 237 230 214 215 239 263 250 224 213 200 194 184 183 176 170 161 158 158 158 163 165 170 189 203 213 220 225 229 230 233 238
205 229 244 264 256 226 260 282 261 248 244 247 238 225 208 220 245 244 245 239 228 209 191 185 183 187 186 180 174 174 183 197 205 209 212 207 202 199 203 212 218 220 226 231